Weather History for Adelaide, SA

Change the Weather History Date:

Monday, May 12, 2014

  Actual Average Record
Temperature  
Mean Temperature 59 °F -  
Max Temperature 70 °F 63 °F 73 °F (2007)
Min Temperature 48 °F 47 °F 39 °F (2004)
Degree Days  
Heating Degree Days 6    
Growing Degree Days 9 (Base 50)    
Moisture  
Dew Point 48 °F    
Average Humidity 67    
Maximum Humidity 100    
Minimum Humidity 28    
Precipitation  
Precipitation 0.00 in 0.07 in - ()
Sea Level Pressure  
Sea Level Pressure 30.32 in    
Wind  
Wind Speed 6 mph ()    
Max Wind Speed 17 mph    
Max Gust Speed -    
Visibility 11.1 miles    
Events Fog    
Averages and records for this station are not official NWS values.
T = Trace of Precipitation, MM = Missing Value Source: Averaged Metar Reports

Daily Weather History Graph

Daily Weather History Graph

Search for Another Location

Airport:

Trip Planner

Search our weather history database for the weather conditions in past years. The results will help you decide how hot, cold, wet, or windy it might be!

Date:

Astronomy

May. 12, 2014 Rise Set
Actual Time 7:00 AM ACST 5:23 PM ACST
Civil Twilight 6:33 AM ACST 5:50 PM ACST
Nautical Twilight 6:03 AM ACST 6:20 PM ACST
Astronomical Twilight 5:33 AM ACST 6:50 PM ACST
Moon 3:44 PM ACST (5/12) 4:03 AM ACST (5/12)
Length of Visible Light 11h 16m
Length of Day
10h 23m
Waxing Gibbous, 92% of the Moon is Illuminated
May 12
Waxing Gibbous
May 15
Full
May 21
Last Quarter
May 29
New
Jun 6
First Quarter

Hourly Weather History & Observations

Time (ACST) Temp. Dew Point Humidity Pressure Visibility Wind Dir Wind Speed Gust Speed Precip Events Conditions
12:00 AM 52 °F 50 °F 89% 30.34 in 22 mi East 3.5 mph - -   Partly Cloudy
12:00 AM 51.8 °F 50.0 °F 94% 30.33 in - East 3.5 mph - N/A   Clear
12:30 AM 52 °F 50 °F 90% 30.34 in - Calm Calm - -  
12:30 AM 51.8 °F 50.0 °F 94% 30.33 in - Calm Calm - N/A   Clear
1:00 AM 51.8 °F 50.0 °F 94% 30.33 in - ENE 3.5 mph - N/A   Clear
1:30 AM 51.8 °F 48.2 °F 88% 30.33 in - NE 4.6 mph - N/A   Clear
2:00 AM 51.8 °F 48.2 °F 88% 30.33 in - NE 4.6 mph - N/A   Clear
2:30 AM 51.8 °F 50.0 °F 94% 30.33 in - NE 3.5 mph - N/A   Clear
3:00 AM 51 °F 50 °F 94% 30.33 in 22 mi ENE 4.6 mph - -   Partly Cloudy
3:00 AM 51.8 °F 50.0 °F 94% 30.33 in - ENE 4.6 mph - N/A   Clear
3:30 AM 51 °F 49 °F 89% 30.34 in - East 4.6 mph - -  
3:30 AM 50.0 °F 48.2 °F 94% 30.33 in - East 4.6 mph - N/A   Clear
4:00 AM 50.0 °F 48.2 °F 94% 30.33 in - East 2.3 mph - N/A   Clear
4:30 AM 50.0 °F 48.2 °F 94% 30.33 in - ENE 4.6 mph - N/A   Clear
5:00 AM 50.0 °F 50.0 °F 100% 30.33 in - ENE 1.2 mph - N/A   Clear
5:30 AM 50.0 °F 48.2 °F 94% 30.33 in - ENE 3.5 mph - N/A   Clear
6:00 AM 49 °F 47 °F 92% 30.36 in 22 mi ENE 2.3 mph - -   Partly Cloudy
6:00 AM 48.2 °F 48.2 °F 100% 30.36 in - ENE 2.3 mph - N/A   Clear
6:21 AM 48.2 °F 48.2 °F 100% 30.36 in 6.2 mi NE 5.8 mph - N/A Fog Patches of Fog
6:30 AM 49 °F 47 °F 92% 30.36 in - NE 5.8 mph - -  
6:30 AM 48.2 °F 48.2 °F 100% 30.36 in 6.2 mi NE 5.8 mph - N/A Fog Patches of Fog
7:00 AM 50.0 °F 48.2 °F 94% 30.36 in - NE 6.9 mph - N/A   Clear
7:30 AM 51.8 °F 50.0 °F 94% 30.36 in - NE 5.8 mph - N/A   Clear
8:00 AM 53.6 °F 50.0 °F 88% 30.36 in - NE 4.6 mph - N/A   Clear
8:30 AM 59.0 °F 53.6 °F 82% 30.36 in - NE 5.8 mph - N/A   Clear
9:00 AM 62 °F 52 °F 61% 30.39 in 19 mi NE 6.9 mph - -   Partly Cloudy
9:00 AM 62.6 °F 51.8 °F 68% 30.36 in - NNE 6.9 mph - N/A   Clear
9:30 AM 64 °F 54 °F 61% 30.38 in - NE 8.1 mph - -  
9:30 AM 64.4 °F 53.6 °F 68% 30.36 in - NE 8.1 mph - N/A   Clear
10:00 AM 66.2 °F 51.8 °F 60% 30.36 in - NE 12.7 mph - N/A   Clear
10:30 AM 68.0 °F 51.8 °F 56% 30.36 in 6.2 mi NNE 13.8 mph - N/A   Scattered Clouds
11:00 AM 68.0 °F 50.0 °F 52% 30.36 in 6.2 mi NNE 13.8 mph - N/A   Scattered Clouds
11:30 AM 69.8 °F 48.2 °F 46% 30.33 in 6.2 mi North 15.0 mph - N/A   Partly Cloudy
12:00 PM 70 °F 46 °F 31% 30.34 in 19 mi NNE 15.0 mph - -   Partly Cloudy
12:00 PM 69.8 °F 46.4 °F 43% 30.33 in 6.2 mi NNE 15.0 mph - N/A   Partly Cloudy
12:30 PM 70 °F 44 °F 28% 30.32 in - NNE 15.0 mph - -  
12:30 PM 69.8 °F 44.6 °F 40% 30.30 in 6.2 mi NNE 15.0 mph - N/A   Partly Cloudy
1:00 PM 69.8 °F 44.6 °F 40% 30.30 in 6.2 mi NNE 15.0 mph - N/A   Scattered Clouds
1:30 PM 69.8 °F 44.6 °F 40% 30.30 in - NNE 17.3 mph - N/A   Clear
2:00 PM 69.8 °F 44.6 °F 40% 30.27 in - NE 15.0 mph - N/A   Clear
2:30 PM 69.8 °F 42.8 °F 38% 30.27 in - NNE 12.7 mph - N/A   Clear
3:00 PM 70 °F 46 °F 32% 30.28 in 19 mi NE 12.7 mph - -   Partly Cloudy
3:00 PM 69.8 °F 46.4 °F 43% 30.27 in - NE 12.7 mph - N/A   Clear
3:30 PM 69 °F 46 °F 32% 30.28 in - NE 10.4 mph - -  
3:30 PM 69.8 °F 46.4 °F 43% 30.27 in - NE 10.4 mph - N/A   Clear
4:00 PM 68.0 °F 44.6 °F 43% 30.27 in - NNE 12.7 mph - N/A   Clear
4:30 PM 66.2 °F 44.6 °F 46% 30.27 in - NNE 13.8 mph - N/A   Clear
5:00 PM 64.4 °F 44.6 °F 49% 30.27 in - NE 10.4 mph - N/A   Clear
5:30 PM 64.4 °F 46.4 °F 52% 30.27 in - NE 9.2 mph - N/A   Clear
6:00 PM 64 °F 46 °F 40% 30.29 in 19 mi NE 8.1 mph - -   Partly Cloudy
6:00 PM 64.4 °F 46.4 °F 52% 30.27 in - NE 8.1 mph - N/A   Clear
6:30 PM 62 °F 46 °F 45% 30.30 in - ENE 8.1 mph - -  
6:30 PM 62.6 °F 46.4 °F 55% 30.27 in - ENE 8.1 mph - N/A   Clear
7:00 PM 59.0 °F 46.4 °F 63% 30.30 in - East 8.1 mph - N/A   Clear
7:30 PM 59.0 °F 46.4 °F 63% 30.30 in - ENE 8.1 mph - N/A   Clear
8:00 PM 59.0 °F 46.4 °F 63% 30.30 in - NE 10.4 mph - N/A   Clear
8:30 PM 59.0 °F 46.4 °F 63% 30.30 in - NE 10.4 mph - N/A   Clear
9:00 PM 60 °F 46 °F 49% 30.31 in 19 mi NE 9.2 mph - -   Partly Cloudy
9:00 PM 59.0 °F 46.4 °F 63% 30.30 in - NE 9.2 mph - N/A   Clear
9:30 PM 58 °F 46 °F 54% 30.30 in - NE 10.4 mph - -  
9:30 PM 59.0 °F 46.4 °F 63% 30.30 in - NE 10.4 mph - N/A   Clear
10:00 PM 57.2 °F 46.4 °F 67% 30.30 in - NE 9.2 mph - N/A   Clear
10:30 PM 57.2 °F 44.6 °F 63% 30.27 in - NE 9.2 mph - N/A   Clear
11:00 PM 55.4 °F 44.6 °F 67% 30.27 in - NE 10.4 mph - N/A   Clear
11:30 PM 55.4 °F 44.6 °F 67% 30.27 in - NE 10.4 mph - N/A   Clear